Meteo Giornale » Osservazioni meteo Stati Uniti (USA) » Sault Ste Marie
ore: 20:55 - Osservazioni Meteo Sault Ste Marie
Lat. 46° 28' N Lon. 84° 21' W Alt. 210 metri s.l.m.
19 °C
Foschia
Temp. 24 Ore
17 °C
20 °C
Nord
0 Km/h
Dew point 19 °C
Umidità 100 %
Visibilità 5 Km
Il sole sorge alle ore 06:56
Il sole tramonta alle ore 20:18
| Data e Ora | Cielo e Fenomeni | T °C | DP °C | Um. % | Pres. hPa | Vis. km | Vento km/h | |
|---|---|---|---|---|---|---|---|---|
| Oggi h: 20:55 | Foschia | 19 | 19 | 100 | 1012 | 5 | N 0 | |
| Oggi h: 20:48 | Foschia | 19 | 19 | 100 | 1012 | 5 | N 5.5 | |
| Oggi h: 20:33 | Foschia | 19 | 19 | 100 | 1012 | 3 | N 7.4 | |
| Oggi h: 19:55 | Foschia | 19 | 19 | 100 | 1012 | 2 | N 0 | |
| Oggi h: 18:55 | Foschia | 19 | 19 | 100 | 1012 | 2 | E/SE 11.1 | |
| Oggi h: 18:14 | Foschia | 20 | 19 | 93 | 1012 | 5 | SE 11.1 | |
| Oggi h: 17:55 | Foschia | 20 | 19 | 93 | 1012 | 5 | SE 11.1 | |
| Oggi h: 16:55 | Foschia | 20 | 19 | 93 | 1012 | 8 | E/SE 9.3 | |
| Oggi h: 15:55 | Foschia | 20 | 19 | 93 | 1012 | 8 | N 7.4 | |
| Oggi h: 14:55 | Foschia | 19 | 18 | 93 | 1013 | 6 | E/SE 9.3 | |
| Oggi h: 14:13 | Foschia | 19 | 18 | 93 | 1014 | 5 | E 11.1 | |
| Oggi h: 13:55 | Foschia | 19 | 18 | 93 | 1014 | 2 | E/SE 11.1 | |
| Oggi h: 13:16 | Foschia | 19 | 18 | 93 | 1014 | 5 | E/SE 11.1 | |
| Oggi h: 13:09 | Foschia | 19 | 18 | 93 | 1014 | 2 | N 0 | |
| Oggi h: 12:55 | Pioggia Foschia | 19 | 18 | 93 | 1014 | 5 | E 11.1 | |
| Oggi h: 12:46 | Foschia | 19 | 18 | 93 | 1014 | 5 | E 11.1 | |
| Oggi h: 12:23 | Foschia | 18 | 18 | 100 | 1014 | 3 | E/SE 13 | |
| Oggi h: 12:02 | Foschia | 18 | 18 | 100 | 1014 | 5 | E/SE 13 | |
| Oggi h: 11:55 | Foschia | 18 | 18 | 100 | 1014 | 2 | N 11.1 | |
| Oggi h: 11:28 | Foschia | 18 | 18 | 100 | 1014 | 2 | E/SE 11.1 | |
| Oggi h: 10:55 | Foschia | 18 | 18 | 100 | 1015 | 2 | N 0 | |
| Oggi h: 10:01 | Foschia | 18 | 18 | 100 | 1015 | 5 | SE 11.1 | |
| Oggi h: 09:55 | Foschia | 18 | 18 | 100 | 1015 | 5 | E/SE 9.3 | |
| Oggi h: 09:31 | Foschia | 18 | 18 | 100 | 1015 | 5 | E/SE 11.1 | |
| Oggi h: 08:55 | Foschia | 18 | 18 | 100 | 1014 | 3 | E/SE 14.8 | |
| Oggi h: 07:55 | Foschia | 18 | 18 | 100 | 1014 | 2 | E/SE 14.8 | |
| Oggi h: 07:44 | Foschia | 18 | 18 | 100 | 1014 | 5 | E/SE 14.8 | |
| Oggi h: 06:55 | Foschia | 18 | 18 | 100 | 1014 | 8 | E/SE 13 | |
| Oggi h: 05:55 | Foschia | 18 | 18 | 100 | 1015 | 8 | SE 9.3 | |
| Oggi h: 04:55 | Foschia | 18 | 18 | 100 | 1016 | 10 | N 9.3 | |
| Oggi h: 03:55 | Coperto | 18 | 18 | 100 | 1015 | 11 | E 9.3 | |
| Oggi h: 02:55 | Coperto | 18 | 17 | 93 | 1016 | 10 | N 9.3 | |
| Oggi h: 01:55 | Coperto | 18 | 17 | 93 | 1016 | 10 | N 0 | |
| Oggi h: 00:55 | Coperto | 18 | 17 | 93 | 1016 | 10 | N 5.5 | |
| Oggi h: 00:32 | Molto Nuvoloso | 18 | 17 | 93 | 1016 | 10 | E/SE 7.4 | |
| Oggi h: 00:03 | Coperto | 18 | 17 | 93 | 1016 | 10 | N 5.5 | |
| Ieri h: 23:55 | Coperto | 18 | 17 | 93 | 1016 | 10 | E 7.4 | |
| Ieri h: 23:09 | Nuvoloso | 18 | 17 | 93 | 1016 | 10 | E/SE 9.3 | |
| Ieri h: 22:55 | Molto Nuvoloso | 18 | 17 | 93 | 1016 | 10 | E/SE 9.3 | |
| Ieri h: 22:41 | Molto Nuvoloso | 17 | 17 | 100 | 1016 | 10 | E 7.4 | |
| Ieri h: 21:55 | Sereno | 17 | 17 | 100 | 1016 | 10 | E/SE 7.4 | |



